User: anonymous   Login
Location: Unspecified
(0.0000°N, 0.0000°E)
Time: 20:46:11
(UTC+00:00)
Language:

Envisat - Orbit

View from above orbital plane
View from above orbital plane
View from above satellite
View from above satellite

Ground track
Ground track

The orbit data is extracted from the following two-line orbital elements,

1 27386U 02009A   20196.27272425 -.00000009  00000-0  10379-4 0  9990
2 27386  98.1355 201.9114 0001368  91.9026 278.5865 14.37985891962476
Epoch (UTC): 14 July 2020 06:32:43
Eccentricity: 0.0001368
inclination: 98.1355°
perigee height: 764 km
apogee height: 766 km
right ascension of ascending node: 201.9114°
argument of perigee: 91.9026°
revolutions per day: 14.37985891
mean anomaly at epoch: 278.5865°
orbit number at epoch: 96247

The dashed part of the orbit path shows where the satellite is in the earth's shadow,  

DLR